EHI
0 0 0 0 0 0 0 0 0 0 0 0 0 0 0 0 0 0 0 0 0 0 0 0 0 0 0 0 0 0 0 0 0 0 0 0 0 0 0 0 0 0 0
0 0 0 0 0 0 0 0 0 0 0 0 0 0 0 0 0 0 0 0 0 0 0 0 0 0 0 0 0 0 0 0 0 0 0 0 0 0 0 0 0 0 0
0 0 0 0 0 0 0 0 0 0 0 0 0 0 0 0 0 0 0 0 0 0 0 0 0 0 0 0 0 0 0 0 0 0 0 0 0 0 0 0 0 0 0
0 0 0 0 0 0 0 0 0 0 0 0 0 0 0 0 0 0 0 0 0 0 0 0 0 0 0 0 0 0 0 0 0 0 0 0 0 0 0 0 0 0 0
0 0 0 0 0 0 0 0 0 0 0 0 0 0 0 0 0 0 0 0 0 0 0 0 0 0 0 0 0 0 0 0 0 0 0 0 0 0 0 0 0 0 0
0 0 0 0 0 0 0 0 0 0 0 0 0 0 0 0 0 0 0 0 0 0 0 0 0 0 0 0 0 0 0 0 0 0 0 0 0 0 0 0 0 0 0
0 0 0 0 0 0 0 0 0 0 0 0 0 0 0 0 0 0 0 0 0 0 0 0 0 0 0 0 0 0 0 0 0 0 0 0 0 0 0 0 0 0 0
0 0 0 0 0 0 0 0 0 0 0 0 0 0 0 0 0 0 0 0 0 0 0 0 0 0 0 0 0 0 0 0 0 0 0 0 0 0 0 0 0 0 0
0 0 0 0 0 0 0 0 0 0 0 0 0 0 0 0 0 0 0 0 0 0 0 0 0 0 0 0 0 0 0 0 0 0 0 0 0 0 0 0 0 0 0
0 0 0 0 0 0 0 0 0 0 0 0 0 0 0 0 0 0 0 0 0 0 0 0 0 0 0 0 0 0 0 0 0 0 0 0 0 0 0 0 0 0 0
0 0 0 0 0 0 0 0 0 0 0 0 0 0 0 0 0 0 0 0 0 0 0 0 0 0 0 0 0 0 0 0 0 0 0 0 0 0 0 0 0 0 0
0 0 0 0 0 0 0 0 0 0 0 0 0 0 0 0 0 0 0 0 0 0 0 0 0 0 0 0 0 0 0 0 0 0 0 0 0 0 0 0 0 0 0
0 0 0 0 0 0 0 0 0 0 0 0 0 0 0 0 0 0 0 0 0 0 0 0 0 0 0 0 0 0 0 0 0 0 0 0 0 0 0 0 0 0 0
0 0 0 0 0 0 0 0 0 0 0 0 0 0 0 0 0 0 0 0 0 0 0 0 0 0 0 0 0 0 0 0 0 0 0 0 0 0 0 0 0 0 0
0 0 0 0 0 0 0 0 0 0 0 0 0 0 0 0 0 0 0 0 0 0 0 0 0 0 0 0 0 0 0 0 0 0 0 0 0 0 0 0 0 0 0
0 0 0 0 0 0 0 0 0 0 0 0 0 0 0 0 0 0 0 0 0 0 0 0 0 0 0 0 0 0 0 0 0 0 0 0 0 0 0 0 0 0 0
0 0 0 0 0 0 0 0 0 0 0 0 0 0 0 0 0 0 0 0 0 0 0 0 0 0 0 0 0 0 0 0 0 0 0 0 0 0 0 0 0 0 0
0 0 0 0 0 0 0 0 0 0 0 0 0 0 0 0 0 0 0 0 0 0 0 0 0 0 0 0 0 0 0 0 0 0 0 0 0 0 0 0 0 0 0
0 0 0 0 0 0 0 0 0 0 0 0 0 0 0 0 0 0 0 0 0 0 0 0 0 0 0 0 0 0 0 0 0 0 0 0 0 0 0 0 0 0 0
0 0 0 0 0 0 0 0 0 0 0 0 0 0 0 0 0 0 0 0 0 0 0 0 0 0 0 0 0 0 0 0 0 0 0 0 0 0 0 0 0 0 0
0 0 0 0 0 0 0 0 0 0 0 0 0 0 0 0 0 0 0 0 0 0 0 0 0 0 0 0 0 0 0 0 0 0 0 0 0 0 0 0 0 0 0
0 0 0 0 0 0 0 0 0 0 0 0 0 0 0 0 0 0 0 0 0 0 0 0 0 0 0 0 0 0 0 0 0 0 0 0 0 0 0 0 0 0 0
0 0 0 0 0 0 0 0 0 0 0 0 0 0 0 0 0 0 0 0 0 0 0 0 0 0 0 0 0 0 0 0 0 0 0 0 0 0 0 0 0 0 0
0 0 0 0 0 0 0 0 0 0 0 0 0 0 0 0 0 0 0 0 0 0 0 0 0 0 0 0 0 0 0 0 0 0 0 0 0 0 0 0 0 0 0
0 0 0 0 0 0 0 0 0 0 0 0 0 0 0 0 0 0 0 0 0 0 0 0 0 0 0 0 0 0 0 0 0 0 0 0 0 0 0 0 0 0 0
0 0 0 0 0 0 0 0 0 0 0 0 0 0 0 0 0 0 0 0 0 0 0 0 0 0 0 0 0 0 0 0 0 0 0 0 0 0 0 0 0 0 0
Wind_Speed
2 2 2 1 2 2 1 1 1 1 1 1 1 1 1 0 0 0 1 1 1 2 2 2 2 1 1 1 1 2 2 2 4 4 2 2 3 3 3 3 3 3 3
2 2 1 1 1 2 1 1 1 1 1 1 1 1 1 1 1 1 0 0 1 1 2 2 2 2 2 1 1 2 2 2 3 4 3 3 3 3 3 4 4 3 3
2 2 2 1 1 1 1 1 1 1 1 1 1 1 1 1 1 1 1 1 1 1 2 2 2 2 2 2 2 2 2 2 2 3 4 3 3 3 3 4 4 3 4
2 2 2 1 1 1 1 1 1 1 1 0 0 0 0 0 1 1 1 1 1 2 2 2 3 3 3 3 3 3 2 3 3 3 4 3 3 3 2 3 3 3 3
1 2 1 1 2 2 1 1 1 0 0 0 0 0 1 1 1 1 1 2 2 2 3 3 3 4 5 4 4 3 3 3 3 3 4 4 3 2 3 2 3 3 3
1 1 1 1 1 1 1 1 0 0 1 0 1 1 1 1 2 3 3 2 2 2 3 3 4 4 5 7 8 7 6 5 5 4 4 5 5 4 3 3 3 3 4
2 1 2 1 1 1 1 1 1 1 1 1 1 1 1 1 3 4 4 3 2 2 3 3 4 4 5 3 6 8 7 9 9 6 5 5 5 4 4 4 4 5 5
2 2 1 1 1 1 1 1 1 1 1 1 1 1 2 2 4 5 5 3 3 3 4 4 4 4 4 4 4 4 5 6 6 5 5 5 5 4 4 5 5 5 4
2 2 1 1 1 1 1 1 1 1 1 1 1 2 2 3 4 5 5 2 2 3 3 4 4 4 7 8 4 4 5 5 6 8 8 8 9 9 6 2 3 4 5
2 2 1 2 2 2 2 1 1 1 1 1 2 2 3 3 4 5 5 1 2 2 3 3 6 6 8 8 4 4 6 5 4 4 5 6 5 6 8 4 3 4 4
2 2 1 2 2 2 2 1 1 1 1 2 2 2 2 3 4 5 5 2 2 3 3 3 3 8 9 9 8 5 7 6 4 4 3 3 3 3 3 3 3 3 4
2 2 2 2 2 1 1 1 1 1 1 2 2 2 2 2 4 5 6 6 5 3 3 3 4 9 10 10 7 8 9 7 3 3 3 3 3 3 2 2 3 3 4
2 2 2 2 2 1 2 2 1 1 2 2 2 2 3 2 3 6 7 7 8 4 4 7 9 10 9 6 7 9 7 3 2 3 3 3 2 2 2 2 3 3 4
3 3 2 2 2 2 2 2 2 2 2 2 2 3 3 2 2 2 2 3 6 5 4 6 8 9 7 7 6 4 3 3 3 3 3 3 2 2 2 2 3 2 3
3 3 2 2 2 2 2 2 3 3 3 3 3 3 3 3 4 6 4 3 3 4 4 3 2 3 3 3 3 3 2 2 3 2 2 2 3 3 3 2 2 2 3
3 3 2 2 2 2 2 2 4 5 6 7 7 6 5 7 8 9 9 9 9 8 5 3 3 3 4 3 3 3 3 3 3 3 3 3 3 3 3 3 3 3 3
4 3 2 3 3 3 3 3 3 4 6 8 8 9 8 8 9 8 9 8 8 7 4 3 3 3 4 3 3 3 4 3 3 3 3 3 3 3 3 3 3 3 3
3 4 3 3 3 3 3 3 3 3 3 3 5 8 9 9 9 8 8 6 4 4 3 3 4 4 4 3 3 4 4 3 3 3 3 3 3 3 3 4 3 4 3
3 3 3 2 3 3 3 2 3 3 3 3 3 4 6 8 8 8 6 3 3 3 3 3 4 4 4 4 3 3 4 4 4 3 3 3 3 3 4 4 4 5 4
3 5 4 3 2 2 2 3 3 3 3 3 3 3 3 3 3 3 3 3 3 4 4 4 4 4 4 4 4 3 4 4 4 4 4 3 3 3 4 4 4 4 3
2 3 4 3 2 3 3 3 3 3 3 4 4 4 6 3 3 3 3 4 4 4 4 4 4 4 4 4 3 4 4 4 4 4 3 3 3 3 3 3 4 3 3
2 2 3 3 3 3 3 3 3 3 4 4 4 4 8 4 3 3 4 4 4 3 3 3 4 4 3 3 4 4 4 4 4 4 3 3 3 3 3 3 3 3 3
2 2 3 3 2 4 3 3 3 3 3 4 4 3 3 3 4 4 4 4 3 3 3 3 4 4 3 3 3 4 4 4 4 4 4 3 3 3 3 3 4 4 3
2 2 2 2 2 2 3 3 3 3 3 4 3 3 3 3 4 4 4 3 3 3 3 3 4 5 5 4 3 3 3 4 4 4 5 4 4 3 3 3 4 4 3
2 2 2 2 2 2 3 3 3 3 3 3 3 3 3 3 4 4 3 3 4 4 4 4 4 4 5 6 5 4 6 8 8 5 4 3 4 4 4 4 3 3 3
2 2 2 2 2 2 3 3 3 3 3 3 3 3 4 4 4 4 4 3 4 4 4 4 4 5 5 5 6 7 8 8 8 8 4 3 4 4 4 3 4 3 3
Wind_Direction
100 90 81 65 68 78 83 92 94 85 88 83 68 53 53 35 349 243 206 193 217 229 216 198 219 224 234 236 226 229 242 241 263 282 285 292 292 291 296 286 282 270 273
123 112 105 88 80 79 82 74 71 80 84 79 71 62 48 27 8 355 293 282 241 252 244 223 228 243 244 242 234 236 244 243 254 276 289 281 278 278 279 283 291 294 278
120 118 113 107 96 92 85 69 62 67 60 52 57 47 29 0 325 315 311 295 264 253 254 249 242 239 247 249 248 245 254 266 254 262 278 281 283 285 286 289 291 288 289
131 131 136 142 134 114 91 74 68 71 72 50 40 19 315 303 295 308 305 292 291 280 266 253 245 241 240 241 248 242 248 258 259 261 271 278 279 278 274 284 295 289 290
127 132 139 136 126 119 116 107 82 69 33 223 250 277 272 251 269 311 305 297 294 292 280 268 260 262 266 258 260 248 242 247 255 260 266 275 270 268 265 268 279 290 285
138 145 130 128 130 136 149 139 136 269 262 246 237 243 256 270 299 297 297 277 276 280 281 280 277 270 273 276 277 273 264 251 251 255 263 260 263 263 270 278 280 289 288
156 162 153 155 155 161 172 174 214 234 241 252 252 254 255 269 292 294 296 293 274 272 273 276 279 280 286 272 277 280 275 271 265 261 259 261 263 256 257 268 267 271 271
171 173 164 161 177 185 188 215 240 242 236 239 247 257 265 274 287 293 296 290 278 270 268 265 267 266 268 270 263 265 263 265 264 263 253 256 261 252 237 251 261 277 279
180 179 180 180 196 205 217 232 239 244 254 254 250 253 262 276 282 292 301 276 273 275 279 274 272 263 277 285 277 271 276 274 273 272 276 277 278 277 273 265 267 276 282
187 188 199 192 199 213 222 234 240 234 241 264 270 262 258 263 281 290 301 279 282 290 291 284 284 285 287 292 278 267 271 272 275 278 277 278 271 264 267 249 239 256 277
176 187 208 203 205 210 219 232 230 238 248 262 272 275 269 271 284 285 289 288 281 288 292 294 289 295 291 291 290 271 273 282 273 268 269 267 266 256 251 250 247 243 260
174 193 210 211 212 208 201 230 229 221 240 257 267 281 273 267 273 275 279 285 293 283 284 284 287 297 296 297 295 290 292 297 280 271 272 268 263 266 270 270 271 271 264
179 197 207 208 203 200 203 222 232 220 232 253 255 266 275 267 269 277 284 289 293 292 284 292 300 305 305 300 294 295 295 285 275 271 269 272 274 272 280 288 289 282 284
189 202 204 196 206 217 227 225 227 228 232 249 259 266 274 276 269 267 273 284 290 293 293 295 302 305 304 298 296 291 283 273 277 268 272 280 286 282 280 281 285 292 296
199 206 205 203 207 223 236 236 238 236 232 240 242 244 261 271 277 284 291 285 285 281 296 293 290 291 287 286 286 283 278 279 282 280 278 285 289 290 290 289 281 284 281
202 204 203 203 211 217 232 260 256 251 262 262 261 259 264 273 284 286 290 293 295 297 295 276 275 277 277 278 281 287 284 278 273 275 271 270 272 276 284 289 281 272 272
204 204 202 205 213 217 223 232 258 270 266 265 268 271 271 277 281 287 290 292 293 293 278 269 272 276 277 277 277 278 277 277 273 271 269 268 270 272 273 275 276 274 270
209 215 211 210 214 219 223 229 235 249 267 275 274 274 278 280 282 286 289 293 289 284 265 268 273 277 277 277 276 276 277 278 273 267 265 265 264 266 269 269 269 268 269
210 211 208 212 217 222 226 230 236 245 254 266 277 282 284 284 283 282 284 266 263 267 269 269 271 274 273 271 271 270 271 272 270 267 263 261 260 262 265 266 268 269 270
215 218 216 213 214 220 226 229 235 242 251 257 261 265 275 277 273 278 269 261 259 261 267 270 271 272 270 267 265 264 267 269 267 264 263 260 259 260 264 266 265 263 262
207 213 219 222 218 219 225 230 235 241 248 254 257 265 268 249 249 255 259 259 258 261 264 266 268 270 267 265 261 260 262 266 264 263 265 261 259 264 263 261 263 261 263
200 205 206 212 220 225 231 230 234 241 247 253 260 268 274 263 250 255 258 262 262 259 257 259 264 266 263 262 260 260 261 264 265 264 262 258 257 258 262 263 263 258 257
196 204 211 214 218 234 242 236 235 240 246 250 257 259 259 255 256 256 261 267 269 269 266 262 265 268 266 261 258 255 255 257 260 263 262 257 254 253 254 258 259 254 254
193 203 214 219 220 224 233 238 241 244 245 250 255 258 260 260 262 265 266 269 268 269 267 265 266 268 270 272 267 262 261 264 263 256 249 249 252 254 254 257 259 253 251
194 204 215 220 225 232 238 243 248 251 251 251 254 260 264 264 265 268 268 268 267 267 269 269 272 271 271 273 274 271 273 276 276 270 249 241 241 243 246 251 254 252 249
197 207 220 228 233 240 245 251 253 254 254 256 256 255 259 262 265 268 269 268 268 270 271 271 272 274 276 274 272 275 278 278 277 276 264 241 238 241 240 245 246 244 237